Location: Oulou
(10.7667°N, 12.5167°W)
Time: 00:44:35
(UTC+00:00)

Centaur D-1A AC-31 - Pass Details

Date: 20 September 2019
Orbit: 515 x 36427 km, 27.4° (Epoch: 15 October)

Event Time Altitude Azimuth Distance (km) Brightness Sun altitude
Rises 20:44:28 0° 235° (SW) 4,186 5.9 -29.5°
Reaches altitude 10° 20:48:07 10° 228° (SW) 2,297 4.4 -30.3°
Enters shadow 20:49:47 20° 219° (SW) 1,454 3.2 -30.7°
